Preview of NWS' New Version of Forecast
This preview is not operational and should not be used for support decisions.

Regional Weather Roundup (RWR)

Issued by National Weather Service (NWS)

                            
000
ASUS44 KJAN 231210
RWRMS 

MISSISSIPPI HOURLY WEATHER ROUNDUP
NATIONAL WEATHER SERVICE JACKSON MS
600 AM CST SAT FEB 23 2019

NOTE: "FAIR: INDICATES FEW OR NO CLOUDS BELOW 12,000 FEET WITH NO
SIGNIFICANT WEATHER AND/OR OBSTRUCTIONS TO VISIBILITY.

MSZ001>002-007>008-010>013-018>021-025>028-034>036-231300-
NORTHWEST MISSISSIPPI
  
CITY           SKY/WX    TMP DP  RH WIND       PRES   REMARKS
BATESVILLE     CLOUDY    59  59 100 E6        29.91S                  
CLARKSDALE     CLOUDY   N/A N/A N/A E3        29.91S                  
CLEVELAND      CLOUDY    60  60 100 SE9       29.90S FOG              
GREENWOOD      CLOUDY    62  61  96 CALM      29.92S                  
6HR MIN TEMP:  61; 6HR MAX TEMP:  67;                                

GREENVILLE     RAIN     N/A N/A N/A MISG      29.89S                  
OLIVE BRANCH     N/A     57 N/A N/A SE8       29.93R FOG              
OXFORD         CLOUDY    57  57 100 E6        29.94F                  
TUNICA         RAIN      57  57 100 E8        29.93R                  
WINONA         CLOUDY    66  66 100 S6        29.93S                  
$$

MSZ003>006-009-014>017-022>024-029>033-037>039-231300-
NORTHEAST MISSISSIPPI
  
CITY           SKY/WX    TMP DP  RH WIND       PRES   REMARKS
ABERDEEN       CLOUDY    57  57 100 CALM      29.98F FOG              
COLUMBUS AFB   FOG       58  57  97 CALM      29.97S VSB 1            
6HR MIN TEMP:  57; 6HR MAX TEMP:  59; 6HR PCP:  0.02;                

CORINTH        LGT RAIN  57  57 100 SE8       29.97R                  
GOLDN TRIANGLE CLOUDY    64  64 100 S9        29.98R FOG              
STARKVILLE     CLOUDY    61  59  94 SE5       29.97S VSB 1/4          
TUPELO         RAIN      59  57  93 E9        29.97F                  
6HR MIN TEMP:  56; 6HR MAX TEMP:  61; 6HR PCP:  2.03;                

$$

MSZ040-058-231300-
CENTRAL MISSISSIPPI
  
CITY           SKY/WX    TMP DP  RH WIND       PRES   REMARKS
JACKSON INTL   MOCLDY    70  68  93 S12       29.94S                  
6HR MIN TEMP:  70; 6HR MAX TEMP:  72; 6HR PCP:  0.06;                

JACKSON HAWKNS MOCLDY    71  69  93 SE13      29.94R                  
6HR MIN TEMP:  70; 6HR MAX TEMP:  72; 6HR PCP:  0.04;                

MADISON        CLOUDY    68  68 100 CALM      29.94R                  
MERIDIAN KEY   CLOUDY    72  68  87 S9        29.99S                  
6HR MIN TEMP:  71; 6HR MAX TEMP:  73; 6HR PCP:  0.04;                

MERIDIAN NAS   CLOUDY    70  69  97 S6        29.99S                  
6HR MIN TEMP:  63; 6HR MAX TEMP:  71; 6HR PCP:  0.06;                

RAYMOND        PTSUNNY   70  70 100 SE3       29.93S                  
VICKSBURG VKS  PTSUNNY   72  72 100 SE8       29.91S                  
$$

MSZ059>079-231300-
SOUTH MISSISSIPPI
  
CITY           SKY/WX    TMP DP  RH WIND       PRES   REMARKS
HATTIESBURG    CLOUDY    72  69  90 S8        30.01S                  
6HR MIN TEMP:  72; 6HR MAX TEMP:  74; 6HR PCP: TRACE;                

LAUREL         FAIR      69  69 100 SE6       29.99F                  
MCCOMB         MOCLDY    72  67  84 S15       29.96S                  
6HR MIN TEMP:  72; 6HR MAX TEMP:  74; 6HR PCP:  0.01;                

NATCHEZ        CLOUDY    72  70  94 S14       29.91F                  
6HR MIN TEMP:  71; 6HR MAX TEMP:  72; 6HR PCP:  0.02;                

PINE BELT      FAIR      70  68  93 S10       30.00F                  
6HR MIN TEMP:  70; 6HR MAX TEMP:  72; 6HR PCP:  0.01;                

$$

MSZ080>082-231300-
COASTAL MISSISSIPPI
  
CITY           SKY/WX    TMP DP  RH WIND       PRES   REMARKS
BILOXI         FOG       69  69 100 S6        30.01R VSB 1/2          
6HR MIN TEMP:  68; 6HR MAX TEMP:  69;                                

PASCAGOULA     CLOUDY    72  70  93 S8        30.01R FOG              
6HR MIN TEMP:  71; 6HR MAX TEMP:  73;                                

GULFPORT       FOG       69  69 100 S7        30.00R VSB 1/4          
6HR MIN TEMP:  68; 6HR MAX TEMP:  70;                                

$$

LAZ007>009-015>016-023>026-231300-
NORTHEAST LOUISIANA
  
CITY           SKY/WX    TMP DP  RH WIND       PRES   REMARKS
BASTROP        FOG       58  57  97 CALM      29.88F VSB 1/2          
TALLULAH/VBURG FAIR      68  67  96 S7        29.90F                  
6HR MIN TEMP:  66; 6HR MAX TEMP:  70; 6HR PCP: TRACE;                

VIDALIA        CLOUDY    68  67  97 SE9       29.89F FOG              
$$